Location: Newark
(44.3681°N, 100.3364°W)
Time: 14:37:01
(UTC+00:00)

Explorer 7 - Pass Details

Date: 25 February 2020
Orbit: 485 x 679 km, 50.3° (Epoch: 05 April)

Event Time Altitude Azimuth Distance (km) Brightness Sun altitude
Rises 21:28:13 0° 293° (WNW) 2,884 10.7 26.3°
Reaches altitude 10° 21:30:41 10° 300° (WNW) 1,944 9.9 26.0°
Maximum altitude 21:34:57 46° 14° (NNE) 776 7.5 25.5°
Drops below altitude 10° 21:38:58 10° 89° (E) 1,819 9.1 25.0°
Sets 21:41:12 0° 95° (E) 2,678 10.0 24.7°
